TimeCST,TemperatureF,Dew PointF,Humidity,Sea Level PressureIn,VisibilityMPH,Wind Direction,Wind SpeedMPH,Gust SpeedMPH,PrecipitationIn,Events,Conditions,WindDirDegrees,DateUTC
12:13 AM,14.5,12.2,90,30.26,10.0,West,4.6,-,N/A,,Clear,260,2012-11-13 06:13:00
12:33 AM,14.0,11.7,90,30.26,10.0,Calm,Calm,-,N/A,,Clear,0,2012-11-13 06:33:00
12:54 AM,14.5,12.0,90,30.26,10.0,WSW,3.5,-,N/A,,Clear,240,2012-11-13 06:54:00
1:14 AM,14.5,11.5,88,30.26,10.0,Calm,Calm,-,N/A,,Clear,0,2012-11-13 07:14:00
1:33 AM,14.7,11.8,88,30.26,10.0,Calm,Calm,-,N/A,,Clear,0,2012-11-13 07:33:00
1:53 AM,14.4,11.5,88,30.27,10.0,Calm,Calm,-,N/A,,Clear,0,2012-11-13 07:53:00
2:14 AM,14.5,11.8,89,30.27,10.0,Calm,Calm,-,N/A,,Clear,0,2012-11-13 08:14:00
2:33 AM,14.9,12.2,89,30.27,10.0,Calm,Calm,-,N/A,,Clear,0,2012-11-13 08:33:00
2:53 AM,15.1,12.7,90,30.26,10.0,Calm,Calm,-,N/A,,Clear,0,2012-11-13 08:53:00
3:14 AM,13.6,11.1,90,30.26,10.0,Calm,Calm,-,N/A,,Clear,0,2012-11-13 09:14:00
3:33 AM,13.1,10.9,91,30.27,10.0,Calm,Calm,-,N/A,,Clear,0,2012-11-13 09:33:00
3:54 AM,14.0,11.5,90,30.26,10.0,Calm,Calm,-,N/A,,Clear,0,2012-11-13 09:54:00
4:13 AM,14.7,12.2,90,30.26,10.0,Calm,Calm,-,N/A,,Clear,0,2012-11-13 10:13:00
4:33 AM,17.8,13.8,84,30.26,10.0,Calm,Calm,-,N/A,,Clear,0,2012-11-13 10:33:00
4:54 AM,18.3,14.0,83,30.28,10.0,SSW,3.5,-,N/A,,Clear,200,2012-11-13 10:54:00
5:13 AM,18.1,14.0,84,30.28,10.0,Calm,Calm,-,N/A,,Clear,0,2012-11-13 11:13:00
5:33 AM,18.0,14.0,84,30.28,10.0,Calm,Calm,-,N/A,,Clear,0,2012-11-13 11:33:00
6:13 AM,18.3,14.9,86,30.28,10.0,SSE,5.8,-,N/A,,Clear,160,2012-11-13 12:13:00
6:33 AM,18.5,15.4,88,30.28,10.0,South,6.9,-,N/A,,Clear,170,2012-11-13 12:33:00
6:53 AM,18.1,14.9,87,30.28,10.0,South,8.1,-,N/A,,Clear,170,2012-11-13 12:53:00
7:14 AM,18.0,14.5,86,30.28,10.0,SSE,3.5,-,N/A,,Clear,150,2012-11-13 13:14:00
7:33 AM,18.5,14.9,86,30.28,10.0,SSE,8.1,-,N/A,,Clear,160,2012-11-13 13:33:00
7:53 AM,19.4,15.4,85,30.28,10.0,SSE,6.9,-,N/A,,Clear,160,2012-11-13 13:53:00
8:14 AM,20.7,15.8,81,30.29,10.0,SSE,5.8,-,N/A,,Clear,160,2012-11-13 14:14:00
8:33 AM,21.9,16.7,80,30.29,10.0,South,4.6,-,N/A,,Clear,170,2012-11-13 14:33:00
8:54 AM,23.5,17.8,79,30.28,10.0,SSE,5.8,-,N/A,,Clear,160,2012-11-13 14:54:00
9:14 AM,24.8,18.5,77,30.28,10.0,SSE,4.6,-,N/A,,Clear,160,2012-11-13 15:14:00
9:33 AM,25.9,19.6,77,30.28,10.0,SSE,6.9,-,N/A,,Clear,160,2012-11-13 15:33:00
9:53 AM,27.9,20.3,73,30.28,10.0,SSE,6.9,-,N/A,,Clear,160,2012-11-13 15:53:00
10:13 AM,29.1,20.5,70,30.29,10.0,SSE,8.1,-,N/A,,Clear,160,2012-11-13 16:13:00
10:33 AM,30.7,21.4,68,30.29,10.0,SSE,6.9,-,N/A,,Clear,150,2012-11-13 16:33:00
10:53 AM,32.2,22.5,67,30.29,10.0,South,9.2,-,N/A,,Clear,170,2012-11-13 16:53:00
11:13 AM,33.8,22.8,64,30.29,10.0,South,6.9,-,N/A,,Clear,170,2012-11-13 17:13:00
11:33 AM,34.7,23.4,63,30.28,10.0,South,6.9,-,N/A,,Clear,190,2012-11-13 17:33:00
11:53 AM,35.6,22.6,59,30.27,10.0,South,8.1,-,N/A,,Clear,180,2012-11-13 17:53:00
12:14 PM,36.9,23.4,58,30.26,10.0,South,8.1,-,N/A,,Clear,170,2012-11-13 18:14:00
12:53 PM,38.3,24.1,57,30.24,10.0,South,8.1,-,N/A,,Clear,170,2012-11-13 18:53:00
1:14 PM,38.3,23.7,56,30.24,10.0,SSE,8.1,-,N/A,,Clear,150,2012-11-13 19:14:00
1:34 PM,39.4,25.0,56,30.24,10.0,SSE,8.1,-,N/A,,Clear,160,2012-11-13 19:34:00
1:53 PM,41.0,25.5,54,30.23,10.0,SSE,9.2,-,N/A,,Clear,160,2012-11-13 19:53:00
2:13 PM,39.4,24.4,55,30.23,10.0,SSE,9.2,-,N/A,,Clear,160,2012-11-13 20:13:00
2:34 PM,39.4,24.6,56,30.23,10.0,South,8.1,-,N/A,,Scattered Clouds,170,2012-11-13 20:34:00
2:53 PM,39.4,25.3,57,30.23,10.0,South,6.9,-,N/A,,Scattered Clouds,170,2012-11-13 20:53:00
3:13 PM,39.4,25.5,58,30.23,10.0,SSE,5.8,-,N/A,,Clear,150,2012-11-13 21:13:00
3:34 PM,38.8,26.2,61,30.24,10.0,SSE,6.9,-,N/A,,Scattered Clouds,160,2012-11-13 21:34:00
3:53 PM,38.3,25.9,61,30.24,10.0,SSE,9.2,-,N/A,,Scattered Clouds,160,2012-11-13 21:53:00
4:13 PM,37.4,25.9,63,30.23,10.0,SSE,8.1,-,N/A,,Scattered Clouds,150,2012-11-13 22:13:00
4:33 PM,37.4,26.6,65,30.23,10.0,SSE,6.9,-,N/A,,Clear,150,2012-11-13 22:33:00
4:53 PM,37.4,26.6,65,30.23,10.0,SE,5.8,-,N/A,,Mostly Cloudy,140,2012-11-13 22:53:00
5:13 PM,36.9,27.0,67,30.23,10.0,SE,6.9,-,N/A,,Mostly Cloudy,140,2012-11-13 23:13:00
5:33 PM,36.5,27.7,70,30.23,10.0,ESE,3.5,-,N/A,,Mostly Cloudy,110,2012-11-13 23:33:00
5:53 PM,35.8,27.5,72,30.23,10.0,SE,4.6,-,N/A,,Mostly Cloudy,130,2012-11-13 23:53:00
6:13 PM,35.8,27.9,73,30.23,10.0,ESE,3.5,-,N/A,,Scattered Clouds,120,2012-11-14 00:13:00
6:33 PM,35.6,27.5,72,30.23,10.0,ESE,5.8,-,N/A,,Overcast,120,2012-11-14 00:33:00
6:54 PM,35.6,27.9,73,30.23,10.0,SE,5.8,-,N/A,,Scattered Clouds,140,2012-11-14 00:54:00
7:13 PM,36.1,27.9,72,30.23,10.0,SE,6.9,-,N/A,,Scattered Clouds,140,2012-11-14 01:13:00
7:33 PM,36.1,27.5,71,30.23,10.0,SSE,5.8,-,N/A,,Overcast,150,2012-11-14 01:33:00
7:53 PM,36.1,27.5,71,30.23,10.0,SSE,5.8,-,N/A,,Overcast,160,2012-11-14 01:53:00
8:13 PM,35.6,27.5,72,30.23,10.0,South,3.5,-,N/A,,Overcast,170,2012-11-14 02:13:00
8:34 PM,35.1,27.7,74,30.23,10.0,SSE,4.6,-,N/A,,Mostly Cloudy,160,2012-11-14 02:34:00
8:54 PM,35.1,27.9,75,30.23,10.0,SSE,4.6,-,N/A,,Overcast,150,2012-11-14 02:54:00
9:13 PM,35.1,27.9,75,30.24,10.0,Calm,Calm,-,N/A,,Overcast,0,2012-11-14 03:13:00
9:33 PM,34.7,28.4,78,30.24,10.0,Calm,Calm,-,N/A,,Overcast,0,2012-11-14 03:33:00
9:54 PM,34.7,28.4,78,30.24,10.0,Calm,Calm,-,N/A,,Overcast,0,2012-11-14 03:54:00
10:13 PM,34.7,28.4,78,30.24,10.0,Calm,Calm,-,N/A,,Overcast,0,2012-11-14 04:13:00
10:33 PM,34.9,28.8,78,30.24,10.0,SSE,4.6,-,N/A,,Overcast,160,2012-11-14 04:33:00
10:53 PM,35.1,28.9,78,30.24,10.0,Calm,Calm,-,N/A,,Overcast,0,2012-11-14 04:53:00
11:13 PM,34.9,28.9,79,30.24,10.0,Calm,Calm,-,N/A,,Overcast,0,2012-11-14 05:13:00
11:34 PM,34.7,28.9,79,30.23,10.0,Calm,Calm,-,N/A,,Overcast,0,2012-11-14 05:34:00
11:53 PM,34.7,28.8,79,30.23,10.0,Calm,Calm,-,N/A,,Overcast,0,2012-11-14 05:53:00